RYS4R EPKT-LGRP

Flight info

Callsign RYS4R
Flight time N/A
Altitude 37000
Route REGTO T195 RAZEC N133 KEKED DCT PERIT DCT NARKA DCT LOMOS DCT NIKTI DCT MES UN139 LURUS UL995 CODIC
Aircraft B738/M-SDE2E3FGHIRWXY/LB1

Departure

Time N/A
Airport Katowice Wojciech Korfanty International Airport (EPKT)

Arrival

Time 2026-04-28 21:58
Airport Rhodes International Airport "Diagoras" (LGRP)
Time Latitude Longitude Altitude Speed Heading
2026-04-28 21:44 36.09508 28.28199 18381 ft 311 kts 336°
2026-04-28 21:44 36.11599 28.27541 17791 ft 312 kts 353°
2026-04-28 21:45 36.13759 28.27400 17226 ft 310 kts 357°
2026-04-28 21:45 36.15898 28.27343 16734 ft 307 kts 357°
2026-04-28 21:45 36.18011 28.27279 16293 ft 302 kts 356°
2026-04-28 21:45 36.20098 28.27195 15824 ft 299 kts 356°
2026-04-28 21:46 36.22175 28.27100 15319 ft 297 kts 356°
2026-04-28 21:46 36.24233 28.27002 14830 ft 295 kts 356°
2026-04-28 21:46 36.26265 28.27321 14304 ft 298 kts 19°
2026-04-28 21:46 36.28009 28.28686 13806 ft 300 kts 45°
2026-04-28 21:47 36.29128 28.30842 13285 ft 300 kts 69°
2026-04-28 21:47 36.29503 28.33368 12811 ft 298 kts 87°
2026-04-28 21:47 36.29553 28.35934 12309 ft 296 kts 88°
2026-04-28 21:47 36.29581 28.38473 11866 ft 293 kts 88°
2026-04-28 21:48 36.29933 28.40914 11396 ft 288 kts 64°
2026-04-28 21:48 36.31109 28.42869 10937 ft 283 kts 38°
2026-04-28 21:48 36.32814 28.44014 10495 ft 279 kts 16°
2026-04-28 21:48 36.34724 28.44393 10026 ft 277 kts
2026-04-28 21:49 36.36517 28.45185 9490 ft 277 kts 34°
2026-04-28 21:49 36.37814 28.46922 9010 ft 275 kts 60°
2026-04-28 21:49 36.38634 28.49044 8555 ft 273 kts 66°
2026-04-28 21:49 36.39375 28.51207 8079 ft 272 kts 67°
2026-04-28 21:50 36.40170 28.53322 7617 ft 270 kts 53°
2026-04-28 21:50 36.41622 28.54729 7142 ft 268 kts 18°
2026-04-28 21:50 36.43442 28.54843 6703 ft 265 kts 343°
2026-04-28 21:50 36.45031 28.53729 6275 ft 263 kts 319°
2026-04-28 21:51 36.46219 28.52022 5795 ft 263 kts 301°
2026-04-28 21:51 36.46867 28.49916 5336 ft 262 kts 279°
2026-04-28 21:51 36.46973 28.47666 4912 ft 260 kts 271°
2026-04-28 21:51 36.46994 28.45410 4557 ft 262 kts 271°
2026-04-28 21:52 36.47005 28.43917 4422 ft 259 kts 271°
2026-04-28 21:52 36.47016 28.42581 4370 ft 254 kts 271°
2026-04-28 21:52 36.47041 28.40425 4272 ft 246 kts 271°
2026-04-28 21:52 36.47070 28.38334 4166 ft 238 kts 271°
2026-04-28 21:53 36.47100 28.36316 4084 ft 230 kts 271°
2026-04-28 21:53 36.47130 28.34363 3992 ft 222 kts 271°
2026-04-28 21:53 36.47158 28.32510 3943 ft 208 kts 271°
2026-04-28 21:53 36.47053 28.30760 3752 ft 202 kts 252°
2026-04-28 21:54 36.46556 28.29175 3626 ft 191 kts 250°
2026-04-28 21:54 36.46106 28.27671 3516 ft 181 kts 251°
2026-04-28 21:54 36.45680 28.26181 2975 ft 192 kts 251°
2026-04-28 21:54 36.45277 28.24780 2499 ft 201 kts 252°
2026-04-28 21:55 36.44805 28.23171 2195 ft 196 kts 252°
2026-04-28 21:55 36.44342 28.21596 1933 ft 191 kts 252°
2026-04-28 21:55 36.43896 28.20079 1678 ft 184 kts 253°
2026-04-28 21:55 36.43470 28.18628 1452 ft 173 kts 253°
2026-04-28 21:56 36.43071 28.17270 1254 ft 161 kts 253°
2026-04-28 21:56 36.42703 28.16019 1009 ft 149 kts 253°
2026-04-28 21:56 36.42364 28.14855 820 ft 140 kts 251°
2026-04-28 21:56 36.42031 28.13720 661 ft 142 kts 251°
2026-04-28 21:57 36.41693 28.12564 468 ft 141 kts 248°
2026-04-28 21:57 36.41360 28.11429 261 ft 139 kts 249°
2026-04-28 21:57 36.41032 28.10321 81 ft 134 kts 249°
2026-04-28 21:57 36.40740 28.09326 29 ft 116 kts 250°
2026-04-28 21:58 36.40543 28.08653 24 ft 47 kts 249°
2026-04-28 21:58 36.40478 28.08629 23 ft 13 kts 107°
2026-04-28 21:58 36.40444 28.08732 28 ft 10 kts 117°
2026-04-28 21:58 36.40409 28.08789 28 ft 9 kts 121°
2026-04-28 21:59 36.40398 28.08873 28 ft 11 kts 95°
2026-04-28 21:59 36.40396 28.08967 28 ft 9 kts 87°
2026-04-28 21:59 36.40367 28.09012 28 ft 7 kts 156°
2026-04-28 22:00 36.40337 28.09025 28 ft 0 kts 160°
2026-04-28 22:24 36.40345 28.09021 28 ft 3 kts 158°
2026-04-28 22:24 36.40358 28.09014 28 ft 3 kts 153°
2026-04-28 22:24 36.40376 28.09001 28 ft 3 kts 140°
2026-04-28 22:25 36.40390 28.08984 28 ft 3 kts 117°
2026-04-28 22:25 36.40395 28.08962 28 ft 2 kts 80°
2026-04-28 22:25 36.40394 28.08961 28 ft 1 kts 79°
2026-04-28 22:27 36.40395 28.08961 28 ft 0 kts 79°
2026-04-28 22:27 36.40404 28.09016 28 ft 13 kts 73°
2026-04-28 22:27 36.40441 28.09144 28 ft 17 kts 70°